Nagpur Sonegaon, India

3:24 PM IST on December 08, 2016 (GMT +0530)
Nagpur

Weather History for VANP - May, 2013

Change the Weather History Date:

Monday, May 13, 2013

  Actual Average Record
Temperature  
Mean Temperature 94 °F -  
Max Temperature 109 °F 105 °F - ()
Min Temperature 79 °F 81 °F - ()
Cooling Degree Days 29    
Growing Degree Days 44 (Base 50)    
Moisture  
Dew Point 60 °F    
Average Humidity 28    
Maximum Humidity 40    
Minimum Humidity 14    
Precipitation  
Precipitation 0.00 in 0.11 in - ()
Sea Level Pressure  
Sea Level Pressure 29.63 in    
Wind  
Wind Speed 3 mph ()    
Max Wind Speed 9 mph    
Max Gust Speed -    
Visibility 2.2 miles    
Events      
T = Trace of Precipitation, MM = Missing Value Source: Averaged Metar Reports

Daily Weather History Graph

Daily Weather History Graph

Search for Another Location

Airport or City:

Trip Planner

Search our weather history database for the weather conditions in past years. The results will help you decide how hot, cold, wet, or windy it might be!

Date:

Astronomy

May. 13, 2013 Rise Set
Actual Time 5:36 AM IST 6:43 PM IST
Civil Twilight 5:13 AM IST 7:07 PM IST
Nautical Twilight 4:45 AM IST 7:35 PM IST
Astronomical Twilight 4:16 AM IST 8:04 PM IST
Moon 8:02 AM IST (5/13) 9:31 PM IST (5/13)
Length of Visible Light 13h 54m
Length of Day
13h 06m
Waxing Crescent, 9% of the Moon is Illuminated
May 13
Waxing Crescent
May 18
First Quarter
May 25
Full
Jun 1
Last Quarter
Jun 8
New

Hourly Weather History & Observations

Time (IST) Temp. Heat Index Dew Point Humidity Pressure Visibility Wind Dir Wind Speed Gust Speed Precip Events Conditions
12:10 AM 87.8 °F 86.1 °F 55.4 °F 33% 29.65 in - North - - N/A   Partly Cloudy
1:10 AM 87.8 °F 85.7 °F 53.6 °F 31% 29.65 in - North - - N/A   Partly Cloudy
2:10 AM 86.0 °F 84.2 °F 53.6 °F 33% 29.62 in - North - - N/A   Partly Cloudy
2:30 AM 85 °F - 55 °F 26% 29.57 in 2 mi NW 3.5 mph - -  
3:10 AM 84.2 °F 83.0 °F 55.4 °F 37% 29.62 in 3.7 mi NW 2.3 mph - N/A   Unknown
5:10 AM 82.4 °F 81.7 °F 55.4 °F 39% 29.65 in 3.7 mi Calm Calm - N/A   Unknown
5:30 AM 83 °F - 57 °F 31% 29.61 in 2 mi Calm Calm - -   Partly Cloudy
6:10 AM 84.2 °F 83.5 °F 57.2 °F 40% 29.68 in 3.7 mi Calm Calm - N/A   Scattered Clouds
6:40 AM 84.2 °F 83.5 °F 57.2 °F 40% 29.68 in 3.7 mi Calm Calm - N/A   Partly Cloudy
7:10 AM 86.0 °F 85.4 °F 59.0 °F 40% 29.71 in 3.7 mi Calm Calm - N/A   Unknown
7:40 AM 87.8 °F 87.1 °F 59.0 °F 38% 29.71 in 3.7 mi NW 3.5 mph - N/A   Unknown
8:10 AM 91.4 °F 90.7 °F 59.0 °F 34% 29.71 in 3.7 mi NW 6.9 mph - N/A   Unknown
8:30 AM 92 °F - 63 °F 28% 29.65 in 2 mi NNW 5.8 mph - -   Clear
8:40 AM 93.2 °F 92.6 °F 59.0 °F 32% 29.71 in 3.7 mi NNW 9.2 mph - N/A   Unknown
9:10 AM 95.0 °F 95.2 °F 60.8 °F 32% 29.71 in 3.7 mi NNW 8.1 mph - N/A   Unknown
9:40 AM 96.8 °F 97.1 °F 60.8 °F 30% 29.74 in 3.1 mi NE 5.8 mph - N/A   Haze
10:10 AM 96.8 °F 97.1 °F 60.8 °F 30% 29.74 in 3.1 mi ENE 4.6 mph - N/A   Haze
11:10 AM 102.2 °F 103.6 °F 60.8 °F 26% 29.71 in 1.9 mi Calm Calm - N/A   Haze
11:30 AM 103 °F - 64 °F 19% 29.62 in 1 mi East 3.5 mph - -   Haze
11:40 AM 104.0 °F 107.4 °F 64.4 °F 27% 29.71 in 1.6 mi North 3.5 mph - N/A   Haze
12:10 PM 107.6 °F 112.3 °F 64.4 °F 25% 29.68 in 1.2 mi ENE 3.5 mph - N/A   Haze
12:40 PM 109.4 °F 113.7 °F 64.4 °F 23% 29.65 in 1.2 mi WNW 6.9 mph - N/A   Haze
1:10 PM 111.2 °F 118.1 °F 66.2 °F 24% 29.65 in 1.2 mi NW 8.1 mph - N/A   Haze
1:40 PM 111.2 °F 116.0 °F 64.4 °F 22% 29.62 in 1.2 mi NW 6.9 mph - N/A   Haze
2:30 PM 108 °F - 62 °F 14% 29.51 in 1 mi WNW 3.5 mph - -   Haze
2:40 PM 111.2 °F 116.0 °F 64.4 °F 22% 29.59 in 1.6 mi East 3.5 mph - N/A   Haze
3:10 PM 109.4 °F 113.7 °F 64.4 °F 23% 29.59 in 1.9 mi East 4.6 mph - N/A   Haze
3:40 PM 109.4 °F 112.8 °F 62.6 °F 22% 29.56 in 1.9 mi SE 6.9 mph - N/A   Haze
4:40 PM 109.4 °F 112.8 °F 62.6 °F 22% 29.56 in 1.9 mi East 2.3 mph - N/A   Haze
5:10 PM 107.6 °F 110.6 °F 62.6 °F 23% 29.56 in 1.6 mi SE 3.5 mph - N/A   Haze
5:30 PM 106 °F - 61 °F 15% 29.47 in 1 mi WNW 3.5 mph - -   Haze
5:40 PM 105.8 °F 108.3 °F 62.6 °F 24% 29.56 in 1.6 mi Calm Calm - N/A   Haze
6:10 PM 105.8 °F 108.3 °F 62.6 °F 24% 29.56 in 1.6 mi WNW 2.3 mph - N/A   Haze
6:40 PM 102.2 °F 104.2 °F 62.6 °F 27% 29.56 in 1.6 mi West 2.3 mph - N/A   Haze
7:10 PM 102.2 °F 105.5 °F 64.4 °F 29% 29.56 in 1.6 mi West 2.3 mph - N/A   Haze
8:30 PM 91 °F - 58 °F 23% 29.55 in 1 mi Calm Calm - -   Haze
9:40 PM 95.0 °F 93.7 °F 57.2 °F 28% 29.62 in 2.5 mi SW 2.3 mph - N/A   Haze
10:10 PM 95.0 °F 93.7 °F 57.2 °F 28% 29.65 in 2.5 mi WSW 2.3 mph - N/A   Haze
10:40 PM 93.2 °F 91.9 °F 57.2 °F 30% 29.62 in 2.5 mi NNW 2.3 mph - N/A   Haze
11:10 PM 93.2 °F 91.9 °F 57.2 °F 30% 29.62 in 2.5 mi NNW 2.3 mph - N/A   Haze
11:30 PM 91 °F - 62 °F 28% 29.57 in 1 mi NW 3.5 mph - -   Haze